| time (UTC) | temp F | wind direction | speed MPH | gust MPH | rain 1hr in | rain 24hr in | rain mn in | humidity % | barometer mb |
| 20260509184246 | 61 | 88 | 2.0 | 7.0 | 0.00 | 0.00 | 0.00 | 70 | 1012.7 |
| 20260509184038 | 61 | 103 | 2.0 | 4.0 | 0.00 | 0.00 | 0.00 | 69 | 1012.7 |
| 20260509183836 | 62 | 95 | 2.0 | 4.0 | 0.00 | 0.00 | 0.00 | 66 | 1012.7 |
| 20260509183631 | 62 | 72 | 1.0 | 4.0 | 0.00 | 0.00 | 0.00 | 62 | 1012.7 |
| 20260509183422 | 62 | 38 | 2.0 | 4.0 | 0.00 | 0.00 | 0.00 | 62 | 1012.7 |
| 20260509182903 | 62 | 47 | 2.0 | 4.0 | 0.00 | 0.00 | 0.00 | 61 | 1012.7 |
| 20260509182701 | 62 | 49 | 2.0 | 4.0 | 0.00 | 0.00 | 0.00 | 61 | 1012.7 |
| 20260509182139 | 62 | 47 | 1.0 | 4.0 | 0.00 | 0.00 | 0.00 | 60 | 1012.6 |
| 20260509181938 | 62 | 46 | 1.0 | 4.0 | 0.00 | 0.00 | 0.00 | 60 | 1012.7 |
| 20260509181731 | 63 | 53 | 0.0 | 4.0 | 0.00 | 0.00 | 0.00 | 60 | 1012.7 |
| 20260509181529 | 63 | 46 | 0.0 | 5.0 | 0.00 | 0.00 | 0.00 | 60 | 1012.7 |
| 20260509181319 | 63 | 43 | 0.0 | 5.0 | 0.00 | 0.00 | 0.00 | 62 | 1012.8 |
| 20260509180117 | 63 | 51 | 3.0 | 8.0 | 0.00 | 0.00 | 0.00 | 65 | 1012.6 |
| 20260509175915 | 63 | 44 | 4.0 | 8.0 | 0.00 | 0.00 | 0.00 | 64 | 1012.7 |
| 20260509175402 | 64 | 37 | 4.0 | 8.0 | 0.00 | 0.00 | 0.00 | 64 | 1012.7 |
| 20260509174844 | 64 | 32 | 4.0 | 8.0 | 0.00 | 0.00 | 0.00 | 64 | 1012.7 |
| 20260509174643 | 64 | 15 | 4.0 | 8.0 | 0.00 | 0.00 | 0.00 | 64 | 1012.7 |
| 20260509173758 | 64 | 20 | 4.0 | 11.0 | 0.00 | 0.00 | 0.00 | 63 | 1012.7 |
| 20260509173550 | 64 | 55 | 5.0 | 11.0 | 0.00 | 0.00 | 0.00 | 63 | 1012.7 |
| 20260509173341 | 65 | 68 | 5.0 | 11.0 | 0.00 | 0.00 | 0.00 | 62 | 1012.8 |
| 20260509173141 | 64 | 35 | 5.0 | 11.0 | 0.00 | 0.00 | 0.00 | 62 | 1012.8 |
| 20260509172931 | 64 | 40 | 5.0 | 11.0 | 0.00 | 0.00 | 0.00 | 61 | 1012.9 |
| 20260509172729 | 65 | 53 | 5.0 | 11.0 | 0.00 | 0.00 | 0.00 | 62 | 1012.8 |
| 20260509172202 | 65 | 53 | 5.0 | 10.0 | 0.00 | 0.01 | 0.00 | 61 | 1012.7 |
| 20260509171959 | 65 | 53 | 5.0 | 10.0 | 0.00 | 0.01 | 0.00 | 61 | 1012.8 |
| 20260509171757 | 65 | 44 | 5.0 | 11.0 | 0.00 | 0.02 | 0.00 | 61 | 1012.8 |
| 20260509171555 | 65 | 46 | 5.0 | 11.0 | 0.00 | 0.02 | 0.00 | 60 | 1012.8 |
| 20260509171350 | 65 | 30 | 5.0 | 11.0 | 0.00 | 0.02 | 0.00 | 60 | 1012.8 |
| 20260509171140 | 65 | 53 | 5.0 | 11.0 | 0.00 | 0.02 | 0.00 | 60 | 1012.7 |
| 20260509170929 | 65 | 47 | 5.0 | 11.0 | 0.00 | 0.02 | 0.00 | 60 | 1012.8 |
| 20260509170046 | 65 | 44 | 4.0 | 13.0 | 0.00 | 0.02 | 0.00 | 61 | 1012.8 |
| 20260509165845 | 65 | 47 | 4.0 | 13.0 | 0.00 | 0.02 | 0.00 | 61 | 1012.7 |
| 20260509165639 | 65 | 51 | 5.0 | 13.0 | 0.00 | 0.02 | 0.00 | 60 | 1012.6 |
| 20260509165430 | 65 | 60 | 5.0 | 13.0 | 0.00 | 0.02 | 0.00 | 61 | 1012.7 |
| 20260509165231 | 65 | 51 | 5.0 | 13.0 | 0.00 | 0.02 | 0.00 | 61 | 1012.7 |
| 20260509165028 | 65 | 68 | 5.0 | 13.0 | 0.00 | 0.02 | 0.00 | 60 | 1012.7 |
| 20260509164826 | 65 | 48 | 5.0 | 11.0 | 0.00 | 0.02 | 0.00 | 60 | 1012.7 |
| 20260509164302 | 65 | 60 | 6.0 | 13.0 | 0.00 | 0.02 | 0.00 | 60 | 1012.6 |
| 20260509164102 | 65 | 33 | 5.0 | 13.0 | 0.00 | 0.02 | 0.00 | 61 | 1012.8 |
| 20260509163853 | 65 | 49 | 5.0 | 13.0 | 0.00 | 0.02 | 0.00 | 61 | 1012.8 |
| 20260509163651 | 66 | 37 | 5.0 | 13.0 | 0.00 | 0.02 | 0.00 | 60 | 1012.7 |
| 20260509163136 | 66 | 44 | 5.0 | 13.0 | 0.00 | 0.02 | 0.00 | 60 | 1012.8 |
| 20260509162929 | 66 | 36 | 5.0 | 13.0 | 0.00 | 0.02 | 0.00 | 60 | 1012.8 |
| 20260509162354 | 66 | 68 | 5.0 | 11.0 | 0.00 | 0.02 | 0.00 | 63 | 1012.9 |
| 20260509162144 | 66 | 342 | 5.0 | 11.0 | 0.00 | 0.02 | 0.00 | 62 | 1012.9 |
| 20260509161940 | 66 | 52 | 5.0 | 11.0 | 0.00 | 0.02 | 0.00 | 60 | 1013.0 |
| 20260509161419 | 66 | 13 | 5.0 | 11.0 | 0.00 | 0.02 | 0.00 | 61 | 1013.1 |
| 20260509161212 | 66 | 11 | 5.0 | 12.0 | 0.00 | 0.02 | 0.00 | 61 | 1013.0 |
| 20260509160335 | 65 | 53 | 7.0 | 12.0 | 0.00 | 0.02 | 0.00 | 61 | 1013.2 |
| 20260509160133 | 65 | 34 | 7.0 | 12.0 | 0.00 | 0.02 | 0.00 | 60 | 1013.1 |
| 20260509155926 | 65 | 44 | 7.0 | 12.0 | 0.00 | 0.02 | 0.00 | 61 | 1013.2 |
| 20260509155727 | 65 | 49 | 7.0 | 12.0 | 0.00 | 0.02 | 0.00 | 61 | 1013.2 |
| 20260509155200 | 65 | 37 | 5.0 | 12.0 | 0.00 | 0.02 | 0.00 | 60 | 1013.2 |
| 20260509154951 | 65 | 44 | 5.0 | 12.0 | 0.00 | 0.02 | 0.00 | 61 | 1013.2 |
| 20260509154742 | 66 | 65 | 4.0 | 12.0 | 0.00 | 0.02 | 0.00 | 61 | 1013.3 |
| 20260509154535 | 66 | 75 | 5.0 | 12.0 | 0.00 | 0.02 | 0.00 | 62 | 1013.4 |
| 20260509154331 | 65 | 72 | 6.0 | 12.0 | 0.00 | 0.02 | 0.00 | 61 | 1013.4 |
| 20260509154132 | 65 | 36 | 6.0 | 12.0 | 0.00 | 0.02 | 0.00 | 61 | 1013.3 |
| 20260509153243 | 66 | 30 | 5.0 | 12.0 | 0.00 | 0.02 | 0.00 | 61 | 1013.2 |
| 20260509152717 | 66 | 44 | 6.0 | 15.0 | 0.00 | 0.02 | 0.00 | 62 | 1013.3 |
| 20260509152507 | 65 | 48 | 6.0 | 15.0 | 0.00 | 0.02 | 0.00 | 61 | 1013.3 |
| 20260509152257 | 65 | 53 | 6.0 | 15.0 | 0.00 | 0.02 | 0.00 | 61 | 1013.3 |
| 20260509152048 | 65 | 46 | 6.0 | 15.0 | 0.00 | 0.02 | 0.00 | 61 | 1013.3 |
| 20260509151841 | 65 | 32 | 6.0 | 15.0 | 0.00 | 0.02 | 0.00 | 61 | 1013.3 |
| 20260509151641 | 66 | 49 | 6.0 | 15.0 | 0.00 | 0.02 | 0.00 | 63 | 1013.2 |
| 20260509151440 | 65 | 45 | 5.0 | 15.0 | 0.00 | 0.02 | 0.00 | 62 | 1013.2 |
| 20260509151235 | 65 | 59 | 5.0 | 15.0 | 0.00 | 0.02 | 0.00 | 60 | 1013.2 |
| 20260509151034 | 66 | 66 | 6.0 | 15.0 | 0.00 | 0.02 | 0.00 | 61 | 1013.2 |
| 20260509150832 | 65 | 11 | 5.0 | 13.0 | 0.00 | 0.02 | 0.00 | 62 | 1013.1 |
| 20260509150626 | 65 | 49 | 6.0 | 13.0 | 0.00 | 0.02 | 0.00 | 61 | 1013.2 |
| 20260509150421 | 65 | 48 | 6.0 | 13.0 | 0.00 | 0.02 | 0.00 | 61 | 1013.1 |
| 20260509150218 | 65 | 54 | 7.0 | 14.0 | 0.00 | 0.02 | 0.00 | 60 | 1013.2 |
| 20260509145700 | 65 | 48 | 5.0 | 14.0 | 0.00 | 0.02 | 0.00 | 61 | 1013.1 |
| 20260509145453 | 66 | 63 | 4.0 | 14.0 | 0.00 | 0.02 | 0.00 | 60 | 1013.2 |
| 20260509144925 | 65 | 53 | 5.0 | 14.0 | 0.00 | 0.02 | 0.00 | 60 | 1013.1 |
| 20260509144724 | 65 | 84 | 6.0 | 14.0 | 0.00 | 0.02 | 0.00 | 60 | 1013.2 |
| 20260509144515 | 65 | 37 | 6.0 | 14.0 | 0.00 | 0.02 | 0.00 | 62 | 1013.2 |
| 20260509144305 | 65 | 39 | 6.0 | 14.0 | 0.00 | 0.02 | 0.00 | 60 | 1013.2 |
| 20260509144103 | 65 | 23 | 6.0 | 12.0 | 0.00 | 0.02 | 0.00 | 59 | 1013.2 |
| 20260509143904 | 66 | 67 | 5.0 | 12.0 | 0.00 | 0.02 | 0.00 | 60 | 1013.2 |
| 20260509143659 | 66 | 43 | 5.0 | 12.0 | 0.00 | 0.02 | 0.00 | 61 | 1013.2 |
| 20260509143452 | 66 | 58 | 4.0 | 11.0 | 0.00 | 0.02 | 0.00 | 62 | 1013.3 |
| 20260509143246 | 66 | 52 | 4.0 | 11.0 | 0.00 | 0.02 | 0.00 | 62 | 1013.3 |
| 20260509143043 | 66 | 60 | 3.0 | 11.0 | 0.00 | 0.02 | 0.00 | 59 | 1013.3 |
| 20260509142842 | 66 | 126 | 4.0 | 11.0 | 0.00 | 0.02 | 0.00 | 62 | 1013.3 |
| 20260509142632 | 66 | 58 | 4.0 | 11.0 | 0.00 | 0.02 | 0.00 | 59 | 1013.3 |
| 20260509142422 | 66 | 54 | 4.0 | 11.0 | 0.00 | 0.02 | 0.00 | 60 | 1013.3 |
| 20260509142215 | 66 | 267 | 5.0 | 12.0 | 0.00 | 0.02 | 0.00 | 61 | 1013.3 |
| 20260509142005 | 65 | 60 | 6.0 | 12.0 | 0.00 | 0.02 | 0.00 | 59 | 1013.3 |
| 20260509141447 | 65 | 192 | 6.0 | 12.0 | 0.00 | 0.02 | 0.00 | 59 | 1013.4 |
| 20260509141243 | 65 | 19 | 6.0 | 12.0 | 0.00 | 0.02 | 0.00 | 61 | 1013.4 |
| 20260509141039 | 65 | 32 | 7.0 | 12.0 | 0.00 | 0.02 | 0.00 | 60 | 1013.4 |
| 20260509140832 | 65 | 60 | 6.0 | 12.0 | 0.00 | 0.02 | 0.00 | 57 | 1013.5 |
| 20260509140630 | 65 | 33 | 7.0 | 12.0 | 0.00 | 0.02 | 0.00 | 58 | 1013.5 |
| 20260509140430 | 65 | 58 | 6.0 | 12.0 | 0.00 | 0.02 | 0.00 | 57 | 1013.5 |
| 20260509140222 | 65 | 33 | 5.0 | 11.0 | 0.00 | 0.02 | 0.00 | 59 | 1013.6 |
| 20260509140019 | 65 | 46 | 5.0 | 13.0 | 0.00 | 0.02 | 0.00 | 59 | 1013.5 |
| 20260509135819 | 65 | 56 | 5.0 | 13.0 | 0.00 | 0.02 | 0.00 | 56 | 1013.5 |
| 20260509135615 | 66 | 30 | 4.0 | 13.0 | 0.00 | 0.02 | 0.00 | 60 | 1013.5 |
| 20260509135405 | 65 | 53 | 5.0 | 13.0 | 0.00 | 0.02 | 0.00 | 59 | 1013.6 |
| 20260509134843 | 65 | 314 | 6.0 | 15.0 | 0.00 | 0.02 | 0.00 | 60 | 1013.6 |
| 20260509134638 | 65 | 46 | 6.0 | 15.0 | 0.00 | 0.02 | 0.00 | 59 | 1013.6 |
| 20260509134439 | 65 | 53 | 6.0 | 15.0 | 0.00 | 0.02 | 0.00 | 58 | 1013.6 |
| 20260509134235 | 65 | 49 | 7.0 | 15.0 | 0.00 | 0.02 | 0.00 | 58 | 1013.6 |
| 20260509134036 | 65 | 39 | 7.0 | 15.0 | 0.00 | 0.02 | 0.00 | 58 | 1013.6 |
| 20260509133827 | 65 | 165 | 7.0 | 15.0 | 0.00 | 0.02 | 0.00 | 60 | 1013.6 |
| 20260509133628 | 64 | 49 | 7.0 | 15.0 | 0.00 | 0.02 | 0.00 | 56 | 1013.6 |
| 20260509133424 | 65 | 43 | 7.0 | 15.0 | 0.00 | 0.02 | 0.00 | 59 | 1013.6 |
| 20260509132904 | 65 | 41 | 7.0 | 13.0 | 0.00 | 0.02 | 0.00 | 57 | 1013.7 |
| 20260509132658 | 64 | 41 | 7.0 | 13.0 | 0.00 | 0.02 | 0.00 | 57 | 1013.7 |
| 20260509132448 | 65 | 47 | 7.0 | 14.0 | 0.00 | 0.02 | 0.00 | 58 | 1013.8 |
| 20260509132248 | 64 | 47 | 6.0 | 14.0 | 0.00 | 0.02 | 0.00 | 59 | 1013.7 |
| 20260509132046 | 64 | 23 | 6.0 | 14.0 | 0.00 | 0.02 | 0.00 | 57 | 1014.0 |
| 20260509131842 | 64 | 23 | 6.0 | 14.0 | 0.00 | 0.02 | 0.00 | 57 | 1013.9 |
| 20260509131636 | 64 | 46 | 6.0 | 14.0 | 0.00 | 0.02 | 0.00 | 59 | 1014.0 |
| 20260509131428 | 64 | 43 | 6.0 | 14.0 | 0.00 | 0.02 | 0.00 | 61 | 1014.0 |
| 20260509131220 | 64 | 51 | 7.0 | 14.0 | 0.00 | 0.02 | 0.00 | 58 | 1014.1 |
| 20260509130650 | 64 | 82 | 7.0 | 14.0 | 0.00 | 0.02 | 0.00 | 59 | 1014.2 |
| 20260509130450 | 64 | 45 | 7.0 | 14.0 | 0.00 | 0.02 | 0.00 | 59 | 1014.2 |
| 20260509125917 | 64 | 46 | 7.0 | 14.0 | 0.00 | 0.02 | 0.00 | 60 | 1014.2 |
| 20260509125714 | 64 | 39 | 7.0 | 14.0 | 0.00 | 0.02 | 0.00 | 61 | 1014.2 |
| 20260509125143 | 64 | 42 | 7.0 | 14.0 | 0.00 | 0.02 | 0.00 | 62 | 1014.2 |
| 20260509124936 | 64 | 41 | 8.0 | 14.0 | 0.00 | 0.02 | 0.00 | 61 | 1014.1 |
| 20260509124727 | 64 | 17 | 7.0 | 14.0 | 0.00 | 0.02 | 0.00 | 63 | 1014.2 |
| 20260509124517 | 64 | 58 | 7.0 | 14.0 | 0.00 | 0.02 | 0.00 | 62 | 1014.2 |
| 20260509124314 | 64 | 46 | 7.0 | 15.0 | 0.00 | 0.02 | 0.00 | 61 | 1014.2 |
| 20260509124112 | 64 | 44 | 6.0 | 15.0 | 0.00 | 0.02 | 0.00 | 61 | 1014.2 |
| 20260509123913 | 65 | 40 | 6.0 | 15.0 | 0.00 | 0.02 | 0.00 | 62 | 1014.2 |
| 20260509123703 | 65 | 58 | 4.0 | 15.0 | 0.00 | 0.02 | 0.00 | 63 | 1014.2 |
| 20260509123455 | 65 | 243 | 5.0 | 15.0 | 0.00 | 0.02 | 0.00 | 63 | 1014.2 |
| 20260509123247 | 64 | 276 | 5.0 | 15.0 | 0.00 | 0.02 | 0.00 | 66 | 1014.2 |
| 20260509122723 | 65 | 132 | 3.0 | 15.0 | 0.00 | 0.02 | 0.00 | 63 | 1014.3 |
| 20260509122201 | 64 | 356 | 5.0 | 13.0 | 0.00 | 0.02 | 0.00 | 65 | 1014.5 |
| 20260509121638 | 63 | 240 | 7.0 | 13.0 | 0.00 | 0.02 | 0.00 | 66 | 1014.5 |
| 20260509121105 | 64 | 54 | 7.0 | 13.0 | 0.00 | 0.02 | 0.00 | 65 | 1014.6 |
| 20260509120902 | 63 | 43 | 6.0 | 13.0 | 0.00 | 0.02 | 0.00 | 66 | 1014.7 |
| 20260509120700 | 64 | 18 | 6.0 | 13.0 | 0.00 | 0.02 | 0.00 | 65 | 1014.7 |
| 20260509120450 | 63 | 301 | 6.0 | 13.0 | 0.00 | 0.02 | 0.00 | 66 | 1014.6 |
| 20260509120251 | 63 | 101 | 6.0 | 13.0 | 0.00 | 0.02 | 0.00 | 65 | 1014.7 |
| 20260509120041 | 63 | 46 | 5.0 | 13.0 | 0.00 | 0.02 | 0.00 | 64 | 1014.8 |
| 20260509115831 | 63 | 60 | 5.0 | 13.0 | 0.00 | 0.02 | 0.00 | 67 | 1014.8 |
| 20260509114953 | 63 | 42 | 6.0 | 13.0 | 0.00 | 0.02 | 0.00 | 68 | 1014.9 |
| 20260509114748 | 63 | 52 | 6.0 | 13.0 | 0.00 | 0.02 | 0.00 | 67 | 1014.9 |
| 20260509114544 | 63 | 77 | 6.0 | 13.0 | 0.00 | 0.02 | 0.00 | 69 | 1014.8 |
| 20260509114344 | 63 | 52 | 5.0 | 13.0 | 0.00 | 0.02 | 0.00 | 68 | 1015.0 |
| 20260509114138 | 63 | 51 | 5.0 | 13.0 | 0.00 | 0.02 | 0.00 | 70 | 1014.9 |
| 20260509113933 | 63 | 59 | 5.0 | 13.0 | 0.00 | 0.02 | 0.00 | 68 | 1015.0 |
| 20260509113731 | 63 | 36 | 6.0 | 13.0 | 0.00 | 0.02 | 0.00 | 66 | 1015.1 |
| 20260509113522 | 63 | 44 | 6.0 | 13.0 | 0.00 | 0.02 | 0.00 | 67 | 1015.2 |
| 20260509113323 | 63 | 49 | 6.0 | 13.0 | 0.00 | 0.02 | 0.00 | 65 | 1015.2 |
| 20260509113120 | 63 | 48 | 6.0 | 13.0 | 0.00 | 0.02 | 0.00 | 68 | 1015.0 |
| 20260509112910 | 62 | 80 | 6.0 | 13.0 | 0.00 | 0.02 | 0.00 | 66 | 1015.2 |
| 20260509112707 | 63 | 49 | 5.0 | 12.0 | 0.00 | 0.02 | 0.00 | 66 | 1015.3 |
| 20260509112504 | 63 | 351 | 5.0 | 12.0 | 0.00 | 0.02 | 0.00 | 66 | 1015.2 |
| 20260509112301 | 63 | 47 | 6.0 | 12.0 | 0.00 | 0.02 | 0.00 | 70 | 1015.3 |
| 20260509111737 | 62 | 131 | 7.0 | 12.0 | 0.00 | 0.02 | 0.00 | 70 | 1015.4 |
| 20260509111537 | 62 | 62 | 6.0 | 12.0 | 0.00 | 0.02 | 0.00 | 70 | 1015.4 |
| 20260509111335 | 62 | 57 | 7.0 | 13.0 | 0.00 | 0.02 | 0.00 | 69 | 1015.5 |
| 20260509111126 | 62 | 65 | 6.0 | 13.0 | 0.00 | 0.02 | 0.00 | 70 | 1015.5 |
| 20260509110923 | 62 | 43 | 6.0 | 13.0 | 0.00 | 0.02 | 0.00 | 70 | 1015.6 |
| 20260509110717 | 62 | 61 | 6.0 | 13.0 | 0.00 | 0.02 | 0.00 | 71 | 1015.6 |
| 20260509110510 | 62 | 50 | 7.0 | 13.0 | 0.00 | 0.02 | 0.00 | 70 | 1015.4 |
| 20260509110304 | 62 | 40 | 8.0 | 13.0 | 0.00 | 0.02 | 0.00 | 71 | 1015.4 |
| 20260509110058 | 62 | 49 | 7.0 | 13.0 | 0.00 | 0.02 | 0.00 | 70 | 1015.5 |
| 20260509105537 | 62 | 38 | 6.0 | 13.0 | 0.00 | 0.02 | 0.00 | 68 | 1015.6 |
| 20260509105330 | 62 | 51 | 5.0 | 12.0 | 0.00 | 0.02 | 0.00 | 67 | 1015.7 |
| 20260509105120 | 62 | 234 | 6.0 | 12.0 | 0.00 | 0.02 | 0.00 | 72 | 1015.7 |
| 20260509104917 | 62 | 85 | 6.0 | 12.0 | 0.00 | 0.02 | 0.00 | 75 | 1015.8 |
| 20260509104356 | 61 | 46 | 5.0 | 12.0 | 0.00 | 0.02 | 0.00 | 71 | 1015.9 |
| 20260509104151 | 61 | 46 | 6.0 | 12.0 | 0.00 | 0.02 | 0.00 | 71 | 1015.9 |
| 20260509103951 | 61 | 47 | 5.0 | 12.0 | 0.00 | 0.02 | 0.00 | 69 | 1015.9 |
| 20260509103745 | 61 | 57 | 5.0 | 13.0 | 0.00 | 0.02 | 0.00 | 70 | 1015.9 |
| 20260509103545 | 61 | 53 | 6.0 | 13.0 | 0.00 | 0.02 | 0.00 | 70 | 1015.9 |
| 20260509103346 | 61 | 43 | 6.0 | 13.0 | 0.00 | 0.02 | 0.00 | 71 | 1015.9 |
| 20260509103146 | 61 | 44 | 5.0 | 13.0 | 0.00 | 0.02 | 0.00 | 71 | 1016.0 |
| 20260509102938 | 61 | 42 | 5.0 | 13.0 | 0.00 | 0.02 | 0.00 | 73 | 1015.9 |
| 20260509102736 | 61 | 20 | 6.0 | 13.0 | 0.00 | 0.02 | 0.00 | 73 | 1015.9 |
| 20260509102534 | 61 | 51 | 5.0 | 13.0 | 0.00 | 0.02 | 0.00 | 72 | 1016.0 |
| 20260509102324 | 61 | 19 | 4.0 | 13.0 | 0.00 | 0.02 | 0.00 | 74 | 1016.0 |
| 20260509102117 | 61 | 94 | 5.0 | 13.0 | 0.00 | 0.02 | 0.00 | 73 | 1016.1 |
| 20260509101916 | 61 | 39 | 5.0 | 13.0 | 0.00 | 0.02 | 0.00 | 72 | 1016.1 |
| 20260509101356 | 60 | 44 | 8.0 | 12.0 | 0.00 | 0.02 | 0.00 | 73 | 1016.1 |
| 20260509101145 | 60 | 50 | 7.0 | 12.0 | 0.00 | 0.02 | 0.00 | 74 | 1016.1 |
| 20260509100943 | 60 | 39 | 6.0 | 12.0 | 0.00 | 0.02 | 0.00 | 75 | 1016.1 |
| 20260509100737 | 60 | 47 | 6.0 | 12.0 | 0.00 | 0.02 | 0.00 | 74 | 1016.1 |
| 20260509100534 | 60 | 344 | 5.0 | 12.0 | 0.00 | 0.02 | 0.00 | 76 | 1016.1 |
| 20260509095655 | 60 | 57 | 5.0 | 11.0 | 0.00 | 0.02 | 0.00 | 79 | 1016.2 |
| 20260509095450 | 60 | 17 | 4.0 | 11.0 | 0.00 | 0.02 | 0.00 | 77 | 1016.1 |
| 20260509094928 | 60 | 45 | 3.0 | 12.0 | 0.00 | 0.02 | 0.00 | 77 | 1016.2 |
| 20260509094722 | 60 | 36 | 4.0 | 12.0 | 0.00 | 0.02 | 0.00 | 76 | 1016.2 |
| 20260509094519 | 60 | 76 | 4.0 | 12.0 | 0.00 | 0.02 | 0.00 | 78 | 1016.3 |
| 20260509094315 | 60 | 41 | 4.0 | 12.0 | 0.00 | 0.02 | 0.00 | 78 | 1016.2 |
| 20260509094110 | 59 | 57 | 5.0 | 12.0 | 0.00 | 0.02 | 0.00 | 78 | 1016.3 |
| 20260509093910 | 59 | 27 | 5.0 | 12.0 | 0.00 | 0.02 | 0.00 | 76 | 1016.3 |
| 20260509093352 | 59 | 72 | 4.0 | 12.0 | 0.00 | 0.02 | 0.00 | 78 | 1016.4 |
| 20260509093144 | 59 | 55 | 4.0 | 12.0 | 0.00 | 0.02 | 0.00 | 79 | 1016.4 |
| 20260509092610 | 60 | 28 | 2.0 | 10.0 | 0.00 | 0.02 | 0.00 | 79 | 1016.4 |
| 20260509092409 | 60 | 226 | 2.0 | 10.0 | 0.00 | 0.02 | 0.00 | 79 | 1016.4 |
| 20260509091846 | 59 | 136 | 4.0 | 10.0 | 0.00 | 0.02 | 0.00 | 82 | 1016.4 |
| 20260509091639 | 58 | 46 | 5.0 | 10.0 | 0.00 | 0.02 | 0.00 | 80 | 1016.4 |
| 20260509091434 | 58 | 60 | 5.0 | 10.0 | 0.00 | 0.02 | 0.00 | 80 | 1016.4 |
| 20260509091226 | 58 | 41 | 5.0 | 10.0 | 0.00 | 0.02 | 0.00 | 80 | 1016.4 |
| 20260509091027 | 58 | 41 | 5.0 | 10.0 | 0.00 | 0.02 | 0.00 | 79 | 1016.4 |
| 20260509090818 | 58 | 49 | 4.0 | 10.0 | 0.00 | 0.02 | 0.00 | 80 | 1016.4 |
| 20260509090614 | 58 | 20 | 4.0 | 9.0 | 0.00 | 0.02 | 0.00 | 81 | 1016.5 |
| 20260509090405 | 58 | 33 | 4.0 | 9.0 | 0.00 | 0.02 | 0.00 | 80 | 1016.5 |
| 20260509090159 | 58 | 34 | 4.0 | 9.0 | 0.00 | 0.02 | 0.00 | 80 | 1016.5 |
| 20260509085953 | 58 | 97 | 4.0 | 9.0 | 0.00 | 0.02 | 0.00 | 80 | 1016.5 |
| 20260509085749 | 58 | 53 | 4.0 | 9.0 | 0.00 | 0.02 | 0.00 | 80 | 1016.5 |
| 20260509085548 | 58 | 42 | 3.0 | 9.0 | 0.00 | 0.02 | 0.00 | 80 | 1016.5 |
| 20260509085342 | 58 | 36 | 3.0 | 9.0 | 0.00 | 0.02 | 0.00 | 81 | 1016.4 |
| 20260509085143 | 59 | 75 | 2.0 | 9.0 | 0.00 | 0.02 | 0.00 | 80 | 1016.4 |
| 20260509084934 | 59 | 10 | 1.0 | 8.0 | 0.00 | 0.02 | 0.00 | 82 | 1016.4 |
| 20260509084731 | 59 | 65 | 1.0 | 7.0 | 0.00 | 0.02 | 0.00 | 82 | 1016.4 |
| 20260509084526 | 59 | 218 | 1.0 | 7.0 | 0.00 | 0.02 | 0.00 | 85 | 1016.4 |
| 20260509084316 | 58 | 131 | 2.0 | 7.0 | 0.00 | 0.02 | 0.00 | 83 | 1016.4 |
| 20260509084108 | 58 | 238 | 2.0 | 7.0 | 0.00 | 0.02 | 0.00 | 84 | 1016.4 |
| 20260509083907 | 58 | 63 | 2.0 | 7.0 | 0.00 | 0.02 | 0.00 | 83 | 1016.4 |
| 20260509083703 | 58 | 124 | 1.0 | 7.0 | 0.00 | 0.02 | 0.00 | 81 | 1016.4 |
| 20260509083137 | 58 | 37 | 1.0 | 6.0 | 0.00 | 0.02 | 0.00 | 81 | 1016.5 |
| 20260509082928 | 58 | 81 | 1.0 | 6.0 | 0.00 | 0.02 | 0.00 | 82 | 1016.4 |
| 20260509082721 | 58 | 85 | 2.0 | 6.0 | 0.00 | 0.02 | 0.00 | 81 | 1016.5 |
| 20260509082510 | 58 | 52 | 2.0 | 6.0 | 0.00 | 0.02 | 0.00 | 81 | 1016.5 |
| 20260509081951 | 57 | 51 | 1.0 | 6.0 | 0.00 | 0.02 | 0.00 | 81 | 1016.4 |
| 20260509081751 | 57 | 42 | 1.0 | 6.0 | 0.00 | 0.02 | 0.00 | 80 | 1016.5 |
| 20260509081541 | 58 | 39 | 0.0 | 5.0 | 0.00 | 0.02 | 0.00 | 81 | 1016.5 |
| 20260509081331 | 57 | 89 | 0.0 | 5.0 | 0.00 | 0.02 | 0.00 | 83 | 1016.5 |
| 20260509081123 | 57 | 186 | 1.0 | 5.0 | 0.00 | 0.02 | 0.00 | 83 | 1016.5 |
| 20260509080915 | 57 | 252 | 1.0 | 5.0 | 0.00 | 0.02 | 0.00 | 83 | 1016.4 |
| 20260509080707 | 56 | 88 | 1.0 | 5.0 | 0.00 | 0.02 | 0.00 | 83 | 1016.5 |
| 20260509080459 | 56 | 54 | 1.0 | 5.0 | 0.00 | 0.02 | 0.00 | 85 | 1016.5 |
| 20260509080300 | 56 | 41 | 1.0 | 5.0 | 0.00 | 0.02 | 0.00 | 86 | 1016.5 |
| 20260509080059 | 56 | 324 | 2.0 | 5.0 | 0.00 | 0.02 | 0.00 | 86 | 1016.5 |
| 20260509075850 | 55 | 64 | 2.0 | 5.0 | 0.00 | 0.02 | 0.00 | 86 | 1016.5 |
| 20260509075650 | 55 | 40 | 2.0 | 5.0 | 0.00 | 0.02 | 0.00 | 85 | 1016.5 |
| 20260509075449 | 55 | 61 | 2.0 | 5.0 | 0.00 | 0.02 | 0.00 | 84 | 1016.5 |
| 20260509075242 | 55 | 52 | 1.0 | 5.0 | 0.00 | 0.02 | 0.00 | 83 | 1016.5 |
| 20260509075036 | 56 | 39 | 1.0 | 3.0 | 0.00 | 0.02 | 0.00 | 86 | 1016.5 |
| 20260509074829 | 55 | 75 | 1.0 | 3.0 | 0.00 | 0.02 | 0.00 | 85 | 1016.5 |
| 20260509074626 | 55 | 65 | 1.0 | 3.0 | 0.00 | 0.02 | 0.00 | 85 | 1016.5 |
| 20260509074424 | 55 | 73 | 1.0 | 3.0 | 0.00 | 0.02 | 0.00 | 83 | 1016.6 |
| 20260509074219 | 55 | 76 | 0.0 | 3.0 | 0.00 | 0.02 | 0.00 | 82 | 1016.6 |
| 20260509073656 | 56 | 44 | 0.0 | 2.0 | 0.00 | 0.02 | 0.00 | 83 | 1016.6 |
| 20260509073452 | 55 | 52 | 0.0 | 2.0 | 0.00 | 0.02 | 0.00 | 84 | 1016.6 |
| 20260509073252 | 55 | 53 | 0.0 | 0.0 | 0.00 | 0.02 | 0.00 | 85 | 1016.6 |
| 20260509072719 | 55 | 55 | 0.0 | 2.0 | 0.00 | 0.02 | 0.00 | 85 | 1016.6 |
| 20260509072510 | 55 | 60 | 0.0 | 2.0 | 0.00 | 0.02 | 0.00 | 86 | 1016.5 |
| 20260509072311 | 54 | 66 | 0.0 | 0.0 | 0.00 | 0.02 | 0.00 | 86 | 1016.5 |
| 20260509072105 | 54 | 45 | 0.0 | 2.0 | 0.00 | 0.02 | 0.00 | 84 | 1016.6 |
| 20260509071532 | 54 | 56 | 0.0 | 2.0 | 0.00 | 0.02 | 0.00 | 84 | 1016.6 |
| 20260509071325 | 54 | 57 | 0.0 | 1.0 | 0.00 | 0.02 | 0.00 | 85 | 1016.6 |
| 20260509071125 | 54 | 64 | 0.0 | 1.0 | 0.00 | 0.02 | 0.00 | 84 | 1016.5 |
| 20260509070918 | 54 | 357 | 0.0 | 2.0 | 0.00 | 0.02 | 0.00 | 85 | 1016.6 |
| 20260509070710 | 54 | 66 | 0.0 | 2.0 | 0.00 | 0.02 | 0.00 | 85 | 1016.6 |
| 20260509070507 | 54 | 54 | 0.0 | 2.0 | 0.00 | 0.02 | 0.00 | 86 | 1016.6 |
| 20260509070308 | 54 | 25 | 0.0 | 2.0 | 0.00 | 0.02 | 0.00 | 86 | 1016.6 |
| 20260509070106 | 54 | 68 | 0.0 | 2.0 | 0.00 | 0.02 | 0.00 | 85 | 1016.5 |
| 20260509065858 | 54 | 74 | 0.0 | 2.0 | 0.00 | 0.02 | 0.00 | 84 | 1016.6 |
| 20260509065330 | 54 | 43 | 0.0 | 2.0 | 0.00 | 0.02 | 0.00 | 85 | 1016.5 |
| 20260509064804 | 53 | 39 | 0.0 | 3.0 | 0.00 | 0.02 | 0.00 | 86 | 1016.5 |
| 20260509064240 | 53 | 52 | 0.0 | 3.0 | 0.00 | 0.02 | 0.00 | 86 | 1016.5 |
| 20260509064038 | 53 | 49 | 1.0 | 3.0 | 0.00 | 0.02 | 0.00 | 86 | 1016.5 |
| 20260509063836 | 53 | 54 | 1.0 | 3.0 | 0.00 | 0.02 | 0.00 | 87 | 1016.5 |
| 20260509063628 | 52 | 41 | 1.0 | 3.0 | 0.00 | 0.02 | 0.00 | 87 | 1016.5 |
| 20260509063428 | 52 | 60 | 1.0 | 3.0 | 0.00 | 0.02 | 0.00 | 86 | 1016.5 |
| 20260509063217 | 53 | 64 | 1.0 | 3.0 | 0.00 | 0.02 | 0.00 | 85 | 1016.5 |
| 20260509063014 | 53 | 65 | 1.0 | 3.0 | 0.00 | 0.02 | 0.00 | 87 | 1016.5 |
| 20260509062813 | 53 | 62 | 1.0 | 5.0 | 0.00 | 0.02 | 0.00 | 87 | 1016.5 |
| 20260509062259 | 53 | 64 | 1.0 | 5.0 | 0.00 | 0.02 | 0.00 | 87 | 1016.5 |
| 20260509061732 | 53 | 45 | 1.0 | 6.0 | 0.00 | 0.02 | 0.00 | 87 | 1016.3 |
| 20260509061530 | 53 | 76 | 1.0 | 6.0 | 0.00 | 0.02 | 0.00 | 87 | 1016.4 |
| 20260509061010 | 52 | 98 | 2.0 | 6.0 | 0.00 | 0.02 | 0.00 | 87 | 1016.3 |
| 20260509060801 | 52 | 71 | 1.0 | 6.0 | 0.00 | 0.02 | 0.00 | 88 | 1016.4 |
| 20260509060551 | 52 | 93 | 2.0 | 6.0 | 0.00 | 0.02 | 0.00 | 89 | 1016.4 |
| 20260509055701 | 52 | 77 | 1.0 | 4.0 | 0.00 | 0.02 | 0.00 | 89 | 1016.2 |
| 20260509055450 | 51 | 93 | 1.0 | 4.0 | 0.00 | 0.02 | 0.00 | 89 | 1016.2 |
| 20260509055249 | 51 | 98 | 1.0 | 4.0 | 0.00 | 0.02 | 0.00 | 89 | 1016.4 |
| 20260509055043 | 51 | 84 | 1.0 | 4.0 | 0.00 | 0.02 | 0.00 | 88 | 1016.2 |
| 20260509054841 | 51 | 117 | 1.0 | 4.0 | 0.00 | 0.02 | 0.00 | 88 | 1016.4 |
| 20260509054637 | 51 | 122 | 1.0 | 3.0 | 0.00 | 0.02 | 0.00 | 89 | 1016.3 |
| 20260509054432 | 51 | 96 | 1.0 | 2.0 | 0.00 | 0.02 | 0.00 | 89 | 1016.2 |
| 20260509054233 | 50 | 103 | 1.0 | 2.0 | 0.00 | 0.02 | 0.00 | 90 | 1016.2 |
| 20260509054027 | 50 | 131 | 1.0 | 2.0 | 0.00 | 0.02 | 0.00 | 90 | 1016.2 |
| 20260509053824 | 50 | 105 | 1.0 | 2.0 | 0.00 | 0.02 | 0.00 | 91 | 1016.2 |
| 20260509053625 | 49 | 110 | 1.0 | 2.0 | 0.00 | 0.02 | 0.00 | 91 | 1016.2 |
| 20260509053054 | 48 | 105 | 0.0 | 2.0 | 0.00 | 0.02 | 0.00 | 93 | 1016.2 |
| 20260509052847 | 48 | 107 | 0.0 | 3.0 | 0.00 | 0.02 | 0.00 | 92 | 1016.2 |
| 20260509052642 | 48 | 110 | 0.0 | 3.0 | 0.00 | 0.02 | 0.00 | 92 | 1016.2 |
| 20260509052127 | 48 | 113 | 0.0 | 3.0 | 0.00 | 0.02 | 0.00 | 92 | 1016.2 |
| 20260509051926 | 48 | 114 | 0.0 | 3.0 | 0.00 | 0.02 | 0.00 | 92 | 1016.2 |
| 20260509051720 | 48 | 86 | 0.0 | 3.0 | 0.00 | 0.02 | 0.00 | 92 | 1016.2 |
| 20260509051514 | 48 | 87 | 1.0 | 3.0 | 0.00 | 0.02 | 0.00 | 92 | 1016.2 |
| 20260509051309 | 48 | 116 | 1.0 | 3.0 | 0.00 | 0.02 | 0.00 | 92 | 1016.2 |
| 20260509051104 | 48 | 113 | 0.0 | 3.0 | 0.00 | 0.02 | 0.00 | 92 | 1016.2 |
| 20260509050902 | 48 | 114 | 0.0 | 3.0 | 0.00 | 0.02 | 0.00 | 92 | 1016.2 |
| 20260509050659 | 48 | 113 | 0.0 | 3.0 | 0.00 | 0.02 | 0.00 | 92 | 1016.2 |
| 20260509050453 | 48 | 114 | 1.0 | 3.0 | 0.00 | 0.02 | 0.00 | 92 | 1016.1 |
| 20260509050248 | 48 | 120 | 1.0 | 3.0 | 0.00 | 0.02 | 0.00 | 92 | 1016.1 |
| 20260509050046 | 48 | 122 | 1.0 | 3.0 | 0.00 | 0.02 | 0.00 | 92 | 1016.0 |
| 20260509045836 | 48 | 127 | 1.0 | 3.0 | 0.00 | 0.02 | 0.00 | 92 | 1016.0 |
| 20260509045629 | 48 | 114 | 1.0 | 3.0 | 0.00 | 0.02 | 0.00 | 92 | 1016.0 |
| 20260509045422 | 48 | 127 | 1.0 | 3.0 | 0.00 | 0.02 | 0.00 | 92 | 1016.0 |
| 20260509045215 | 48 | 102 | 1.0 | 3.0 | 0.00 | 0.02 | 0.00 | 92 | 1016.0 |
| 20260509045011 | 48 | 120 | 1.0 | 3.0 | 0.00 | 0.02 | 0.00 | 92 | 1016.0 |
| 20260509044443 | 48 | 114 | 1.0 | 3.0 | 0.00 | 0.02 | 0.00 | 91 | 1015.9 |
| 20260509044236 | 48 | 119 | 1.0 | 3.0 | 0.00 | 0.02 | 0.00 | 91 | 1015.9 |
| 20260509043715 | 49 | 108 | 0.0 | 2.0 | 0.00 | 0.02 | 0.00 | 91 | 1015.8 |
| 20260509043143 | 49 | 115 | 0.0 | 2.0 | 0.00 | 0.02 | 0.00 | 91 | 1015.8 |
| 20260509042936 | 49 | 115 | 1.0 | 2.0 | 0.00 | 0.02 | 0.00 | 91 | 1015.8 |
| 20260509042103 | 48 | 117 | 0.0 | 2.0 | 0.00 | 0.02 | 0.00 | 91 | 1015.8 |
| 20260509041903 | 48 | 120 | 0.0 | 2.0 | 0.00 | 0.02 | 0.00 | 91 | 1015.8 |
| 20260509041654 | 48 | 126 | 0.0 | 2.0 | 0.00 | 0.02 | 0.00 | 90 | 1015.8 |
| 20260509041448 | 49 | 109 | 0.0 | 2.0 | 0.00 | 0.02 | 0.00 | 90 | 1015.8 |
| 20260509041245 | 49 | 144 | 0.0 | 0.0 | 0.00 | 0.02 | 0.00 | 90 | 1015.8 |
| 20260509041044 | 49 | 144 | 0.0 | 0.0 | 0.00 | 0.02 | 0.00 | 90 | 1015.8 |
| 20260509040833 | 49 | 144 | 0.0 | 0.0 | 0.00 | 0.02 | 0.00 | 90 | 1015.9 |
| 20260509040309 | 49 | 122 | 0.0 | 0.0 | 0.00 | 0.02 | 0.00 | 89 | 1015.8 |
| 20260509035750 | 49 | 122 | 0.0 | 0.0 | 0.00 | 0.02 | 0.00 | 88 | 1015.8 |
| 20260509035551 | 49 | 122 | 0.0 | 0.0 | 0.00 | 0.02 | 0.00 | 88 | 1015.9 |
| 20260509035023 | 50 | 121 | 0.0 | 0.0 | 0.00 | 0.02 | 0.00 | 88 | 1015.8 |
| 20260509034818 | 50 | 122 | 0.0 | 0.0 | 0.00 | 0.02 | 0.00 | 88 | 1015.8 |
| 20260509034609 | 50 | 122 | 0.0 | 0.0 | 0.00 | 0.02 | 0.00 | 88 | 1015.8 |
| 20260509034359 | 50 | 122 | 0.0 | 0.0 | 0.00 | 0.02 | 0.00 | 88 | 1015.8 |
| 20260509034152 | 50 | 122 | 0.0 | 0.0 | 0.00 | 0.02 | 0.00 | 88 | 1015.7 |
| 20260509033953 | 50 | 121 | 0.0 | 0.0 | 0.00 | 0.02 | 0.00 | 88 | 1015.7 |
| 20260509033745 | 50 | 122 | 0.0 | 0.0 | 0.00 | 0.02 | 0.00 | 89 | 1015.7 |
| 20260509033535 | 50 | 122 | 0.0 | 0.0 | 0.00 | 0.02 | 0.00 | 89 | 1015.7 |
| 20260509033326 | 50 | 121 | 0.0 | 0.0 | 0.00 | 0.02 | 0.00 | 88 | 1015.6 |
| 20260509033118 | 50 | 122 | 0.0 | 0.0 | 0.00 | 0.02 | 0.00 | 88 | 1015.7 |
| 20260509032908 | 50 | 122 | 0.0 | 0.0 | 0.00 | 0.02 | 0.00 | 88 | 1015.7 |
| 20260509032705 | 50 | 122 | 0.0 | 0.0 | 0.00 | 0.02 | 0.00 | 88 | 1015.7 |
| 20260509032502 | 50 | 122 | 0.0 | 0.0 | 0.00 | 0.02 | 0.00 | 88 | 1015.7 |
| 20260509032259 | 50 | 122 | 0.0 | 0.0 | 0.00 | 0.02 | 0.00 | 89 | 1015.7 |
| 20260509031413 | 50 | 122 | 0.0 | 0.0 | 0.00 | 0.02 | 0.00 | 89 | 1015.7 |
| 20260509031209 | 50 | 122 | 0.0 | 0.0 | 0.00 | 0.02 | 0.00 | 89 | 1015.7 |
| 20260509031003 | 50 | 121 | 0.0 | 0.0 | 0.00 | 0.02 | 0.00 | 89 | 1015.7 |
| 20260509030756 | 50 | 121 | 0.0 | 0.0 | 0.00 | 0.02 | 0.00 | 89 | 1015.7 |
| 20260509030551 | 50 | 122 | 0.0 | 0.0 | 0.00 | 0.02 | 0.00 | 89 | 1015.6 |
| 20260509030351 | 50 | 122 | 0.0 | 0.0 | 0.00 | 0.02 | 0.00 | 89 | 1015.6 |
| 20260509030144 | 50 | 121 | 0.0 | 0.0 | 0.00 | 0.02 | 0.00 | 89 | 1015.7 |
| 20260509025935 | 50 | 122 | 0.0 | 0.0 | 0.00 | 0.02 | 0.00 | 89 | 1015.7 |
| 20260509025727 | 50 | 122 | 0.0 | 0.0 | 0.00 | 0.02 | 0.00 | 89 | 1015.6 |
| 20260509025528 | 50 | 122 | 0.0 | 0.0 | 0.00 | 0.02 | 0.00 | 89 | 1015.7 |
| 20260509025320 | 50 | 122 | 0.0 | 0.0 | 0.00 | 0.02 | 0.00 | 89 | 1015.6 |
| 20260509025115 | 50 | 122 | 0.0 | 0.0 | 0.00 | 0.02 | 0.00 | 89 | 1015.7 |
| 20260509024913 | 50 | 122 | 0.0 | 0.0 | 0.00 | 0.02 | 0.00 | 89 | 1015.7 |
| 20260509024019 | 50 | 121 | 0.0 | 0.0 | 0.00 | 0.02 | 0.00 | 90 | 1015.8 |
| 20260509023453 | 50 | 122 | 0.0 | 2.0 | 0.00 | 0.02 | 0.00 | 91 | 1016.0 |
| 20260509023251 | 49 | 120 | 0.0 | 2.0 | 0.00 | 0.02 | 0.00 | 91 | 1016.1 |
| 20260509023048 | 49 | 113 | 0.0 | 1.0 | 0.00 | 0.02 | 0.00 | 91 | 1016.1 |
| 20260509022846 | 49 | 223 | 0.0 | 0.0 | 0.00 | 0.02 | 0.00 | 90 | 1016.2 |
| 20260509022644 | 49 | 224 | 1.0 | 2.0 | 0.00 | 0.02 | 0.00 | 90 | 1016.1 |
| 20260509022440 | 49 | 113 | 1.0 | 2.0 | 0.00 | 0.02 | 0.00 | 90 | 1016.1 |
| 20260509022232 | 49 | 115 | 1.0 | 2.0 | 0.00 | 0.02 | 0.00 | 90 | 1016.1 |
| 20260509021706 | 49 | 119 | 1.0 | 3.0 | 0.00 | 0.02 | 0.00 | 90 | 1016.0 |
| 20260509021505 | 50 | 123 | 1.0 | 3.0 | 0.00 | 0.02 | 0.00 | 90 | 1016.0 |
| 20260509021303 | 50 | 116 | 1.0 | 3.0 | 0.00 | 0.02 | 0.00 | 90 | 1016.0 |
| 20260509021101 | 49 | 115 | 1.0 | 3.0 | 0.00 | 0.02 | 0.00 | 90 | 1015.9 |
| 20260509020902 | 49 | 132 | 0.0 | 3.0 | 0.00 | 0.02 | 0.00 | 90 | 1015.9 |
| 20260509020702 | 49 | 125 | 0.0 | 3.0 | 0.00 | 0.02 | 0.00 | 90 | 1016.0 |
| 20260509020145 | 49 | 98 | 0.0 | 3.0 | 0.00 | 0.02 | 0.00 | 89 | 1015.9 |
| 20260509015944 | 50 | 139 | 0.0 | 3.0 | 0.00 | 0.02 | 0.00 | 89 | 1015.8 |
| 20260509015743 | 50 | 179 | 0.0 | 1.0 | 0.00 | 0.02 | 0.00 | 88 | 1015.8 |
| 20260509015544 | 50 | 226 | 0.0 | 0.0 | 0.00 | 0.02 | 0.00 | 88 | 1015.9 |
| 20260509015339 | 50 | 226 | 0.0 | 0.0 | 0.00 | 0.02 | 0.00 | 87 | 1015.9 |
| 20260509015138 | 50 | 226 | 0.0 | 0.0 | 0.00 | 0.02 | 0.00 | 87 | 1015.9 |
| 20260509014937 | 50 | 226 | 0.0 | 0.0 | 0.00 | 0.02 | 0.00 | 87 | 1015.9 |
| 20260509014738 | 50 | 226 | 0.0 | 0.0 | 0.00 | 0.02 | 0.00 | 87 | 1015.9 |
| 20260509014530 | 50 | 226 | 0.0 | 0.0 | 0.00 | 0.02 | 0.00 | 88 | 1015.8 |
| 20260509014322 | 50 | 226 | 0.0 | 0.0 | 0.00 | 0.02 | 0.00 | 87 | 1016.0 |
| 20260509013449 | 50 | 226 | 0.0 | 0.0 | 0.00 | 0.02 | 0.00 | 88 | 1016.0 |
| 20260509013243 | 50 | 226 | 0.0 | 0.0 | 0.00 | 0.02 | 0.00 | 88 | 1016.1 |
| 20260509013035 | 50 | 226 | 0.0 | 0.0 | 0.00 | 0.02 | 0.00 | 88 | 1016.1 |
| 20260509012829 | 50 | 226 | 0.0 | 0.0 | 0.00 | 0.02 | 0.00 | 89 | 1016.0 |
| 20260509012627 | 50 | 226 | 0.0 | 0.0 | 0.00 | 0.02 | 0.00 | 89 | 1016.0 |
| 20260509012421 | 50 | 226 | 0.0 | 0.0 | 0.00 | 0.02 | 0.00 | 90 | 1016.1 |
| 20260509012221 | 50 | 226 | 0.0 | 0.0 | 0.00 | 0.02 | 0.00 | 90 | 1016.1 |
| 20260509012018 | 50 | 226 | 0.0 | 0.0 | 0.00 | 0.02 | 0.00 | 90 | 1016.2 |
| 20260509011137 | 50 | 232 | 0.0 | 0.0 | 0.00 | 0.02 | 0.00 | 90 | 1016.2 |
| 20260509010932 | 50 | 233 | 0.0 | 1.0 | 0.00 | 0.02 | 0.00 | 90 | 1016.3 |
| 20260509010727 | 50 | 230 | 0.0 | 1.0 | 0.00 | 0.02 | 0.00 | 89 | 1016.3 |
| 20260509010526 | 50 | 240 | 0.0 | 1.0 | 0.00 | 0.02 | 0.00 | 89 | 1016.2 |
| 20260509010320 | 50 | 232 | 0.0 | 2.0 | 0.00 | 0.02 | 0.00 | 89 | 1016.4 |
| 20260509010110 | 50 | 248 | 0.0 | 2.0 | 0.00 | 0.02 | 0.00 | 89 | 1016.3 |
| 20260509005900 | 50 | 240 | 0.0 | 1.0 | 0.00 | 0.02 | 0.00 | 89 | 1016.2 |
| 20260509005650 | 50 | 212 | 0.0 | 1.0 | 0.00 | 0.02 | 0.00 | 89 | 1016.2 |
| 20260509005441 | 50 | 217 | 0.0 | 0.0 | 0.00 | 0.02 | 0.00 | 89 | 1016.2 |
| 20260509005240 | 51 | 205 | 0.0 | 0.0 | 0.00 | 0.02 | 0.00 | 89 | 1016.2 |
| 20260509004354 | 51 | 198 | 0.0 | 4.0 | 0.00 | 0.02 | 0.00 | 89 | 1016.2 |
| 20260509004145 | 51 | 203 | 0.0 | 1.0 | 0.00 | 0.02 | 0.00 | 89 | 1016.4 |
| 20260509003618 | 50 | 215 | 0.0 | 1.0 | 0.00 | 0.02 | 0.00 | 89 | 1016.3 |
| 20260509003415 | 50 | 230 | 0.0 | 0.0 | 0.00 | 0.02 | 0.00 | 90 | 1016.3 |
| 20260509002850 | 50 | 244 | 0.0 | 0.0 | 0.00 | 0.02 | 0.00 | 90 | 1016.3 |
| 20260509002319 | 50 | 244 | 0.0 | 0.0 | 0.00 | 0.02 | 0.00 | 89 | 1016.4 |
| 20260509002120 | 50 | 244 | 0.0 | 0.0 | 0.00 | 0.02 | 0.00 | 89 | 1016.4 |
| 20260509001921 | 50 | 244 | 0.0 | 0.0 | 0.00 | 0.02 | 0.00 | 89 | 1016.4 |
| 20260509001712 | 51 | 244 | 0.0 | 0.0 | 0.00 | 0.02 | 0.00 | 89 | 1016.4 |
| 20260509001511 | 51 | 244 | 0.0 | 0.0 | 0.00 | 0.02 | 0.00 | 89 | 1016.4 |
| 20260509000639 | 50 | 245 | 0.0 | 0.0 | 0.00 | 0.02 | 0.00 | 89 | 1016.4 |
| 20260509000440 | 51 | 245 | 0.0 | 0.0 | 0.00 | 0.02 | 0.00 | 89 | 1016.5 |
| 20260509000234 | 51 | 245 | 0.0 | 0.0 | 0.00 | 0.02 | 0.00 | 89 | 1016.5 |
| 20260509000034 | 51 | 245 | 0.0 | 0.0 | 0.00 | 0.02 | 0.00 | 89 | 1016.5 |
| 20260508235506 | 51 | 245 | 0.0 | 0.0 | 0.00 | 0.02 | 0.00 | 88 | 1016.5 |
| 20260508235306 | 51 | 245 | 0.0 | 0.0 | 0.00 | 0.02 | 0.00 | 88 | 1016.4 |
| 20260508235053 | 51 | 245 | 0.0 | 0.0 | 0.00 | 0.02 | 0.00 | 88 | 1016.5 |
| 20260508233853 | 51 | 245 | 0.0 | 0.0 | 0.00 | 0.02 | 0.00 | 88 | 1016.5 |
| 20260508233648 | 51 | 245 | 0.0 | 0.0 | 0.00 | 0.02 | 0.00 | 88 | 1016.4 |
| 20260508233447 | 51 | 245 | 0.0 | 0.0 | 0.00 | 0.02 | 0.00 | 88 | 1016.4 |
| 20260508232606 | 50 | 245 | 0.0 | 0.0 | 0.00 | 0.02 | 0.00 | 88 | 1016.4 |
| 20260508232400 | 51 | 245 | 0.0 | 0.0 | 0.00 | 0.02 | 0.00 | 88 | 1016.4 |
| 20260508232156 | 51 | 245 | 0.0 | 0.0 | 0.00 | 0.02 | 0.00 | 88 | 1016.4 |
| 20260508231956 | 51 | 245 | 0.0 | 0.0 | 0.00 | 0.02 | 0.00 | 88 | 1016.4 |
| 20260508231752 | 51 | 245 | 0.0 | 0.0 | 0.00 | 0.02 | 0.00 | 88 | 1016.3 |
| 20260508231544 | 51 | 245 | 0.0 | 0.0 | 0.00 | 0.02 | 0.00 | 88 | 1016.4 |
| 20260508231338 | 51 | 245 | 0.0 | 0.0 | 0.00 | 0.02 | 0.00 | 88 | 1016.2 |
| 20260508231135 | 51 | 245 | 0.0 | 0.0 | 0.00 | 0.02 | 0.00 | 88 | 1016.4 |
| 20260508230932 | 51 | 245 | 0.0 | 0.0 | 0.00 | 0.02 | 0.00 | 88 | 1016.3 |
| 20260508230723 | 51 | 245 | 0.0 | 0.0 | 0.00 | 0.02 | 0.00 | 88 | 1016.3 |
| 20260508230516 | 51 | 245 | 0.0 | 0.0 | 0.00 | 0.02 | 0.00 | 88 | 1016.4 |
| 20260508230309 | 51 | 245 | 0.0 | 0.0 | 0.00 | 0.02 | 0.00 | 88 | 1016.3 |
| 20260508230104 | 51 | 245 | 0.0 | 0.0 | 0.00 | 0.02 | 0.00 | 88 | 1016.5 |
| 20260508225547 | 51 | 245 | 0.0 | 0.0 | 0.00 | 0.02 | 0.00 | 88 | 1016.4 |
| 20260508225029 | 51 | 245 | 0.0 | 0.0 | 0.00 | 0.02 | 0.00 | 88 | 1016.4 |
| 20260508224828 | 51 | 245 | 0.0 | 0.0 | 0.00 | 0.02 | 0.00 | 88 | 1016.5 |
| 20260508224624 | 51 | 245 | 0.0 | 0.0 | 0.00 | 0.02 | 0.00 | 88 | 1016.4 |
| 20260508224419 | 51 | 245 | 0.0 | 0.0 | 0.00 | 0.02 | 0.00 | 88 | 1016.4 |
| 20260508224209 | 51 | 245 | 0.0 | 0.0 | 0.00 | 0.02 | 0.00 | 87 | 1016.5 |
| 20260508224000 | 51 | 245 | 0.0 | 0.0 | 0.00 | 0.02 | 0.00 | 88 | 1016.5 |
| 20260508223750 | 51 | 245 | 0.0 | 0.0 | 0.00 | 0.02 | 0.00 | 88 | 1016.5 |
| 20260508223550 | 51 | 245 | 0.0 | 0.0 | 0.00 | 0.02 | 0.00 | 88 | 1016.5 |
| 20260508223342 | 51 | 245 | 0.0 | 0.0 | 0.00 | 0.02 | 0.00 | 89 | 1016.5 |
| 20260508223138 | 51 | 245 | 0.0 | 0.0 | 0.00 | 0.02 | 0.00 | 89 | 1016.5 |
| 20260508222615 | 50 | 245 | 0.0 | 0.0 | 0.00 | 0.02 | 0.00 | 90 | 1016.5 |
| 20260508222412 | 50 | 245 | 0.0 | 0.0 | 0.00 | 0.02 | 0.00 | 90 | 1016.6 |
| 20260508222208 | 50 | 245 | 0.0 | 3.0 | 0.00 | 0.02 | 0.00 | 91 | 1016.6 |
| 20260508222006 | 50 | 245 | 0.0 | 3.0 | 0.00 | 0.02 | 0.00 | 91 | 1016.6 |
| 20260508221800 | 50 | 243 | 0.0 | 3.0 | 0.00 | 0.02 | 0.00 | 92 | 1016.7 |
| 20260508221552 | 50 | 231 | 0.0 | 3.0 | 0.00 | 0.02 | 0.00 | 92 | 1016.7 |
| 20260508221346 | 50 | 231 | 0.0 | 3.0 | 0.00 | 0.02 | 0.00 | 92 | 1016.7 |
| 20260508221142 | 50 | 220 | 0.0 | 3.0 | 0.00 | 0.02 | 0.00 | 93 | 1016.7 |
| 20260508220935 | 50 | 231 | 0.0 | 3.0 | 0.00 | 0.02 | 0.00 | 93 | 1016.7 |
| 20260508220733 | 49 | 231 | 0.0 | 0.0 | 0.00 | 0.02 | 0.00 | 93 | 1016.7 |
| 20260508220528 | 49 | 252 | 0.0 | 0.0 | 0.00 | 0.02 | 0.00 | 92 | 1016.6 |
| 20260508220007 | 50 | 238 | 1.0 | 6.0 | 0.00 | 0.02 | 0.02 | 92 | 1016.7 |
| 20260508215446 | 50 | 243 | 2.0 | 6.0 | 0.00 | 0.02 | 0.02 | 91 | 1016.7 |
| 20260508215242 | 50 | 251 | 3.0 | 6.0 | 0.00 | 0.02 | 0.02 | 91 | 1016.7 |
| 20260508215038 | 50 | 223 | 3.0 | 6.0 | 0.00 | 0.02 | 0.02 | 91 | 1016.6 |
| 20260508214835 | 50 | 238 | 3.0 | 6.0 | 0.00 | 0.02 | 0.02 | 91 | 1016.7 |
| 20260508214633 | 50 | 234 | 3.0 | 6.0 | 0.00 | 0.02 | 0.02 | 91 | 1016.7 |
| 20260508214430 | 50 | 227 | 3.0 | 6.0 | 0.00 | 0.02 | 0.02 | 91 | 1016.8 |
| 20260508214229 | 50 | 237 | 3.0 | 6.0 | 0.00 | 0.02 | 0.02 | 91 | 1016.8 |
| 20260508214024 | 51 | 236 | 3.0 | 5.0 | 0.00 | 0.02 | 0.02 | 91 | 1016.7 |
| 20260508213814 | 51 | 241 | 2.0 | 5.0 | 0.00 | 0.02 | 0.02 | 91 | 1016.7 |
| 20260508213614 | 51 | 231 | 2.0 | 5.0 | 0.00 | 0.02 | 0.02 | 91 | 1016.7 |
| 20260508213414 | 51 | 244 | 1.0 | 4.0 | 0.00 | 0.02 | 0.02 | 91 | 1016.6 |
| 20260508213214 | 51 | 216 | 0.0 | 4.0 | 0.00 | 0.02 | 0.02 | 91 | 1016.7 |
| 20260508213008 | 51 | 239 | 0.0 | 2.0 | 0.00 | 0.02 | 0.02 | 91 | 1016.7 |
| 20260508212809 | 51 | 238 | 0.0 | 2.0 | 0.00 | 0.02 | 0.02 | 91 | 1016.8 |
| 20260508212558 | 51 | 288 | 0.0 | 2.0 | 0.00 | 0.02 | 0.02 | 90 | 1016.7 |
| 20260508212353 | 51 | 288 | 0.0 | 2.0 | 0.00 | 0.02 | 0.02 | 90 | 1016.6 |
| 20260508212153 | 51 | 243 | 0.0 | 2.0 | 0.00 | 0.02 | 0.02 | 90 | 1016.6 |
| 20260508211627 | 51 | 239 | 1.0 | 2.0 | 0.00 | 0.02 | 0.02 | 89 | 1016.5 |
| 20260508211420 | 52 | 238 | 1.0 | 2.0 | 0.00 | 0.02 | 0.02 | 89 | 1016.5 |
| 20260508211210 | 52 | 238 | 1.0 | 2.0 | 0.00 | 0.02 | 0.02 | 89 | 1016.5 |
| 20260508211010 | 52 | 239 | 1.0 | 2.0 | 0.00 | 0.02 | 0.02 | 89 | 1016.5 |
| 20260508210810 | 52 | 236 | 0.0 | 2.0 | 0.00 | 0.02 | 0.02 | 88 | 1016.5 |
| 20260508210608 | 52 | 238 | 0.0 | 2.0 | 0.00 | 0.02 | 0.02 | 88 | 1016.5 |
| 20260508210405 | 52 | 241 | 0.0 | 1.0 | 0.00 | 0.02 | 0.02 | 87 | 1016.4 |
| 20260508210158 | 53 | 232 | 0.0 | 1.0 | 0.00 | 0.02 | 0.02 | 86 | 1016.4 |
| 20260508205640 | 54 | 309 | 0.0 | 6.0 | 0.00 | 0.02 | 0.02 | 84 | 1016.3 |
| 20260508205429 | 54 | 252 | 0.0 | 6.0 | 0.00 | 0.02 | 0.02 | 82 | 1016.4 |
| 20260508205224 | 54 | 225 | 1.0 | 6.0 | 0.00 | 0.02 | 0.02 | 82 | 1016.2 |
| 20260508205020 | 53 | 249 | 1.0 | 6.0 | 0.00 | 0.02 | 0.02 | 83 | 1016.3 |
| 20260508204813 | 53 | 229 | 1.0 | 6.0 | 0.00 | 0.02 | 0.02 | 83 | 1016.2 |
| 20260508204604 | 53 | 269 | 1.0 | 6.0 | 0.00 | 0.02 | 0.02 | 84 | 1016.2 |
| 20260508204044 | 53 | 221 | 1.0 | 5.0 | 0.00 | 0.02 | 0.02 | 85 | 1016.2 |
| 20260508203844 | 52 | 191 | 2.0 | 5.0 | 0.00 | 0.02 | 0.02 | 85 | 1016.2 |
| 20260508203641 | 52 | 210 | 2.0 | 5.0 | 0.00 | 0.02 | 0.02 | 86 | 1016.2 |
| 20260508203437 | 52 | 219 | 2.0 | 5.0 | 0.00 | 0.02 | 0.02 | 86 | 1016.2 |
| 20260508203227 | 52 | 214 | 2.0 | 5.0 | 0.00 | 0.02 | 0.02 | 86 | 1016.2 |
| 20260508203024 | 52 | 253 | 1.0 | 9.0 | 0.00 | 0.02 | 0.02 | 87 | 1016.2 |
| 20260508202824 | 52 | 252 | 2.0 | 9.0 | 0.00 | 0.02 | 0.02 | 87 | 1016.2 |
| 20260508202617 | 52 | 240 | 2.0 | 9.0 | 0.00 | 0.02 | 0.02 | 88 | 1016.2 |
| 20260508202411 | 52 | 232 | 2.0 | 9.0 | 0.00 | 0.02 | 0.02 | 88 | 1016.2 |
| 20260508202206 | 52 | 229 | 4.0 | 11.0 | 0.00 | 0.02 | 0.02 | 88 | 1016.2 |
| 20260508202002 | 52 | 232 | 4.0 | 11.0 | 0.00 | 0.02 | 0.02 | 88 | 1016.2 |
| 20260508201755 | 52 | 202 | 5.0 | 11.0 | 0.00 | 0.02 | 0.02 | 88 | 1016.1 |
| 20260508201553 | 52 | 237 | 5.0 | 11.0 | 0.00 | 0.02 | 0.02 | 88 | 1016.2 |
| 20260508201350 | 52 | 231 | 6.0 | 11.0 | 0.00 | 0.02 | 0.02 | 87 | 1016.2 |
| 20260508201146 | 53 | 238 | 6.0 | 11.0 | 0.00 | 0.02 | 0.02 | 87 | 1016.1 |
| 20260508200941 | 53 | 233 | 6.0 | 11.0 | 0.00 | 0.02 | 0.02 | 86 | 1016.2 |
| 20260508200735 | 53 | 235 | 5.0 | 11.0 | 0.00 | 0.02 | 0.02 | 86 | 1016.1 |
| 20260508200527 | 53 | 229 | 4.0 | 11.0 | 0.00 | 0.02 | 0.02 | 86 | 1016.2 |
| 20260508200319 | 53 | 246 | 3.0 | 11.0 | 0.00 | 0.02 | 0.02 | 85 | 1016.1 |
| 20260508200116 | 53 | 244 | 2.0 | 8.0 | 0.00 | 0.02 | 0.02 | 85 | 1016.2 |
| 20260508195907 | 53 | 241 | 1.0 | 8.0 | 0.00 | 0.02 | 0.02 | 84 | 1016.1 |
| 20260508195025 | 53 | 213 | 0.0 | 2.0 | 0.00 | 0.02 | 0.02 | 80 | 1016.0 |
| 20260508194819 | 53 | 165 | 0.0 | 0.0 | 0.00 | 0.02 | 0.02 | 80 | 1015.9 |
| 20260508194613 | 53 | 117 | 1.0 | 3.0 | 0.00 | 0.02 | 0.02 | 80 | 1015.9 |
| 20260508194405 | 53 | 117 | 1.0 | 5.0 | 0.00 | 0.02 | 0.02 | 80 | 1015.8 |
| 20260508194204 | 53 | 98 | 1.0 | 5.0 | 0.00 | 0.02 | 0.02 | 82 | 1015.8 |
| 20260508193954 | 53 | 101 | 1.0 | 5.0 | 0.00 | 0.02 | 0.02 | 83 | 1015.8 |
| 20260508193748 | 52 | 112 | 1.0 | 5.0 | 0.00 | 0.02 | 0.02 | 83 | 1015.8 |
| 20260508193546 | 52 | 119 | 1.0 | 5.0 | 0.00 | 0.02 | 0.02 | 83 | 1015.8 |
| 20260508193342 | 52 | 108 | 2.0 | 7.0 | 0.00 | 0.02 | 0.02 | 84 | 1015.7 |
| 20260508193142 | 52 | 114 | 3.0 | 7.0 | 0.00 | 0.02 | 0.02 | 85 | 1015.7 |
| 20260508192940 | 52 | 117 | 4.0 | 7.0 | 0.00 | 0.02 | 0.02 | 85 | 1015.6 |
| 20260508192736 | 52 | 129 | 4.0 | 7.0 | 0.00 | 0.02 | 0.02 | 85 | 1015.6 |
| 20260508192536 | 52 | 111 | 4.0 | 7.0 | 0.00 | 0.02 | 0.02 | 86 | 1015.6 |
| 20260508192335 | 52 | 117 | 4.0 | 7.0 | 0.00 | 0.02 | 0.02 | 86 | 1015.5 |
| 20260508192130 | 52 | 116 | 4.0 | 7.0 | 0.00 | 0.02 | 0.02 | 86 | 1015.5 |
| 20260508191920 | 52 | 128 | 3.0 | 7.0 | 0.00 | 0.02 | 0.02 | 85 | 1015.5 |
| 20260508191720 | 52 | 97 | 3.0 | 7.0 | 0.00 | 0.02 | 0.02 | 85 | 1015.4 |
| 20260508191518 | 52 | 108 | 4.0 | 7.0 | 0.00 | 0.02 | 0.02 | 85 | 1015.4 |
| 20260508190951 | 52 | 111 | 4.0 | 6.0 | 0.00 | 0.02 | 0.02 | 85 | 1015.3 |
| 20260508190741 | 52 | 125 | 3.0 | 6.0 | 0.00 | 0.02 | 0.02 | 85 | 1015.3 |
| 20260508190220 | 52 | 108 | 3.0 | 6.0 | 0.00 | 0.02 | 0.02 | 85 | 1015.1 |
| 20260508190017 | 53 | 103 | 3.0 | 6.0 | 0.00 | 0.02 | 0.02 | 85 | 1015.2 |
| 20260508185456 | 53 | 108 | 3.0 | 6.0 | 0.00 | 0.02 | 0.02 | 85 | 1015.0 |
| 20260508185252 | 53 | 122 | 3.0 | 6.0 | 0.00 | 0.02 | 0.02 | 85 | 1015.0 |
| 20260508185041 | 53 | 116 | 3.0 | 6.0 | 0.00 | 0.02 | 0.02 | 85 | 1015.0 |
| 20260508184843 | 53 | 105 | 3.0 | 6.0 | 0.00 | 0.02 | 0.02 | 85 | 1015.0 |
| 20260508184632 | 53 | 111 | 3.0 | 6.0 | 0.00 | 0.02 | 0.02 | 85 | 1015.0 |
| 20260508184425 | 53 | 111 | 3.0 | 6.0 | 0.00 | 0.02 | 0.02 | 85 | 1014.9 |